• In Uzbekistan
  • List of Countries
  • For 7 days
  • Water Temperature
  • Satellite Maps
  • Weather Map
  • Weather Widgets
  • user-avatar
    Login

    Hourly Weather Solden

    Today, 19 November, Sunday

    Time Temperature Precipitation Wind Pressure Humidity
    00:00 -12°C° 0 mm 2 mps 577 mmHg 58%
    01:00 -12°C° 0 mm 2 mps 577 mmHg 56%
    02:00 -12°C° 0 mm 2 mps 576 mmHg 54%
    03:00 -10°C° 0 mm 2 mps 576 mmHg 53%
    04:00 -10°C° 0 mm 2 mps 576 mmHg 51%
    05:00 -9°C° 0.1 mm 2 mps 576 mmHg 55%
    06:00 -9°C° 0.1 mm 2 mps 576 mmHg 59%
    07:00 -9°C° 0.1 mm 2 mps 576 mmHg 63%
    08:00 -8°C° 0.6 mm 2 mps 576 mmHg 67%
    09:00 -7°C° 0.6 mm 2 mps 577 mmHg 71%
    10:00 -6°C° 0.6 mm 2 mps 578 mmHg 75%
    11:00 -5°C° 0.2 mm 2 mps 578 mmHg 71%
    12:00 -5°C° 0.2 mm 2 mps 578 mmHg 68%
    13:00 -5°C° 0.2 mm 3 mps 578 mmHg 65%
    14:00 -5°C° 0.1 mm 2 mps 578 mmHg 68%
    15:00 -6°C° 0.1 mm 2 mps 578 mmHg 70%
    16:00 -7°C° 0.1 mm 2 mps 578 mmHg 73%
    17:00 -7°C° 0.1 mm 2 mps 578 mmHg 75%
    18:00 -8°C° 0.1 mm 2 mps 578 mmHg 76%
    19:00 -9°C° 0.1 mm 2 mps 578 mmHg 78%
    20:00 -10°C° 0.1 mm 2 mps 578 mmHg 78%
    21:00 -10°C° 0.1 mm 2 mps 578 mmHg 79%
    22:00 -12°C° 0.1 mm 2 mps 578 mmHg 80%
    23:00 -12°C° 0 mm 2 mps 578 mmHg 80%

    Tomorrow, 20 November, Monday

    Time Temperature Precipitation Wind Pressure Humidity
    00:00 -13°C° 0 mm 2 mps 578 mmHg 80%
    01:00 -13°C° 0 mm 2 mps 578 mmHg 80%
    02:00 -14°C° 0 mm 2 mps 578 mmHg 79%
    03:00 -14°C° 0 mm 2 mps 578 mmHg 78%
    04:00 -14°C° 0 mm 2 mps 578 mmHg 76%
    05:00 -14°C° 0 mm 2 mps 578 mmHg 73%
    06:00 -14°C° 0 mm 2 mps 578 mmHg 70%
    07:00 -14°C° 0 mm 2 mps 579 mmHg 67%
    08:00 -12°C° 0 mm 2 mps 580 mmHg 62%
    09:00 -8°C° 0 mm 2 mps 581 mmHg 58%
    10:00 -6°C° 0 mm 2 mps 582 mmHg 54%
    11:00 -5°C° 0 mm 2 mps 582 mmHg 51%
    12:00 -1°C° 0 mm 1 mps 583 mmHg 49%
    13:00 0°C° 0 mm 1 mps 583 mmHg 47%
    14:00 -1°C° 0 mm 1 mps 582 mmHg 52%
    15:00 -2°C° 0 mm 1 mps 582 mmHg 58%
    16:00 -3°C° 0 mm 1 mps 581 mmHg 63%
    17:00 -4°C° 0 mm 1 mps 580 mmHg 64%
    18:00 -7°C° 0 mm 2 mps 580 mmHg 65%
    19:00 -8°C° 0 mm 2 mps 580 mmHg 66%
    20:00 -8°C° 0 mm 2 mps 580 mmHg 66%
    21:00 -8°C° 0 mm 2 mps 580 mmHg 66%
    22:00 -8°C° 0 mm 2 mps 580 mmHg 66%
    23:00 -8°C° 0 mm 2 mps 580 mmHg 67%

    Day after tomorrow, 21 November, Tuesday

    Time Temperature Precipitation Wind Pressure Humidity
    00:00 -8°C° 0 mm 2 mps 580 mmHg 67%
    01:00 -8°C° 0 mm 2 mps 580 mmHg 68%
    02:00 -7°C° 0 mm 2 mps 580 mmHg 69%
    03:00 -7°C° 0 mm 2 mps 580 mmHg 71%
    04:00 -7°C° 0 mm 2 mps 580 mmHg 72%
    05:00 -7°C° 0 mm 2 mps 580 mmHg 74%
    06:00 -7°C° 0 mm 2 mps 580 mmHg 76%
    07:00 -7°C° 0 mm 2 mps 579 mmHg 77%
    08:00 -6°C° 0 mm 2 mps 580 mmHg 75%
    09:00 -4°C° 0 mm 2 mps 581 mmHg 73%
    10:00 -2°C° 0 mm 2 mps 582 mmHg 71%
    11:00 +1°C° 0 mm 1 mps 583 mmHg 71%
    12:00 +2°C° 0 mm 1 mps 583 mmHg 71%
    13:00 +3°C° 0 mm 1 mps 583 mmHg 71%
    14:00 +2°C° 0 mm 1 mps 582 mmHg 74%
    15:00 0°C° 0 mm 1 mps 582 mmHg 76%
    16:00 -1°C° 0 mm 1 mps 581 mmHg 79%
    17:00 -2°C° 0 mm 1 mps 581 mmHg 79%
    18:00 -3°C° 0 mm 1 mps 581 mmHg 78%
    19:00 -4°C° 0 mm 1 mps 580 mmHg 78%
    20:00 -4°C° 0 mm 1 mps 581 mmHg 76%
    21:00 -4°C° 0 mm 1 mps 581 mmHg 74%
    22:00 -4°C° 0 mm 1 mps 581 mmHg 72%
    23:00 -4°C° 0 mm 1 mps 581 mmHg 71%

    22 November, Wednesday

    Time Temperature Precipitation Wind Pressure Humidity
    00:00 -4°C° 0 mm 1 mps 581 mmHg 70%
    01:00 -4°C° 0 mm 1 mps 581 mmHg 69%
    02:00 -4°C° 0 mm 1 mps 581 mmHg 68%
    03:00 -4°C° 0 mm 1 mps 580 mmHg 67%
    04:00 -4°C° 0 mm 1 mps 580 mmHg 66%
    05:00 -4°C° 0 mm 1 mps 580 mmHg 64%
    06:00 -4°C° 0 mm 1 mps 580 mmHg 63%
    07:00 -4°C° 0 mm 1 mps 580 mmHg 62%
    08:00 -3°C° 0 mm 1 mps 581 mmHg 61%
    09:00 -1°C° 0 mm 1 mps 582 mmHg 60%
    10:00 +1°C° 0 mm 1 mps 583 mmHg 59%
    11:00 +2°C° 0 mm 1 mps 583 mmHg 61%
    12:00 +3°C° 0 mm 1 mps 584 mmHg 64%
    13:00 +4°C° 0 mm 1 mps 584 mmHg 66%
    14:00 +2°C° 0 mm 1 mps 583 mmHg 69%
    15:00 +1°C° 0 mm 1 mps 582 mmHg 71%
    16:00 0°C° 0 mm 1 mps 582 mmHg 73%
    17:00 -1°C° 0 mm 1 mps 581 mmHg 74%
    18:00 -4°C° 0 mm 2 mps 581 mmHg 74%
    19:00 -5°C° 0 mm 2 mps 581 mmHg 75%
    20:00 -5°C° 0 mm 2 mps 581 mmHg 75%
    21:00 -6°C° 0 mm 2 mps 581 mmHg 75%
    22:00 -6°C° 0 mm 2 mps 581 mmHg 75%
    23:00 -6°C° 0 mm 2 mps 581 mmHg 74%

    23 November, Thursday

    Time Temperature Precipitation Wind Pressure Humidity
    00:00 -6°C° 0 mm 2 mps 581 mmHg 74%
    01:00 -6°C° 0 mm 2 mps 581 mmHg 74%
    02:00 -6°C° 0 mm 2 mps 581 mmHg 73%
    03:00 -6°C° 0 mm 2 mps 581 mmHg 72%
    04:00 -6°C° 0 mm 2 mps 581 mmHg 71%
    05:00 -6°C° 0 mm 2 mps 581 mmHg 70%
    06:00 -6°C° 0 mm 2 mps 581 mmHg 70%
    07:00 -7°C° 0 mm 2 mps 581 mmHg 69%
    08:00 -5°C° 0 mm 2 mps 582 mmHg 67%
    09:00 -1°C° 0 mm 1 mps 583 mmHg 65%
    10:00 +1°C° 0 mm 1 mps 584 mmHg 63%
    11:00 +2°C° 0 mm 1 mps 584 mmHg 65%
    12:00 +3°C° 0 mm 1 mps 585 mmHg 67%
    13:00 +3°C° 0 mm 1 mps 585 mmHg 69%
    14:00 +2°C° 0 mm 1 mps 584 mmHg 71%
    15:00 +1°C° 0 mm 1 mps 584 mmHg 73%
    16:00 -1°C° 0 mm 1 mps 583 mmHg 75%
    17:00 -2°C° 0 mm 1 mps 583 mmHg 75%
    18:00 -2°C° 0 mm 1 mps 583 mmHg 76%
    19:00 -3°C° 0 mm 1 mps 583 mmHg 76%
    20:00 -4°C° 0 mm 1 mps 583 mmHg 74%
    21:00 -4°C° 0 mm 1 mps 583 mmHg 73%
    22:00 -4°C° 0 mm 1 mps 583 mmHg 72%
    23:00 -4°C° 0 mm 1 mps 583 mmHg 71%

    24 November, Friday

    Time Temperature Precipitation Wind Pressure Humidity
    00:00 -4°C° 0 mm 1 mps 583 mmHg 71%
    01:00 -4°C° 0 mm 1 mps 583 mmHg 70%
    02:00 -4°C° 0 mm 1 mps 583 mmHg 70%
    03:00 -4°C° 0 mm 1 mps 583 mmHg 71%
    04:00 -4°C° 0 mm 1 mps 583 mmHg 71%
    05:00 -6°C° 0 mm 1 mps 583 mmHg 71%
    06:00 -6°C° 0 mm 1 mps 583 mmHg 71%
    07:00 -6°C° 0 mm 1 mps 583 mmHg 71%
    08:00 -3°C° 0 mm 1 mps 584 mmHg 69%
    09:00 -1°C° 0 mm 1 mps 585 mmHg 67%
    10:00 0°C° 0 mm 1 mps 586 mmHg 65%
    11:00 +1°C° 0 mm 1 mps 586 mmHg 66%
    12:00 +2°C° 0 mm 1 mps 586 mmHg 67%
    13:00 +2°C° 0 mm 2 mps 586 mmHg 67%
    14:00 +1°C° 0 mm 2 mps 585 mmHg 70%
    15:00 0°C° 0 mm 1 mps 585 mmHg 74%
    16:00 -1°C° 0 mm 1 mps 584 mmHg 77%
    17:00 -4°C° 0 mm 2 mps 584 mmHg 78%
    18:00 -5°C° 0 mm 2 mps 584 mmHg 80%
    19:00 -6°C° 0 mm 2 mps 583 mmHg 81%
    20:00 -6°C° 0 mm 2 mps 583 mmHg 81%
    21:00 -6°C° 0 mm 2 mps 583 mmHg 81%
    22:00 -6°C° 0 mm 2 mps 583 mmHg 80%
    23:00 -6°C° 0 mm 2 mps 583 mmHg 80%
    Show more